Tracking 19489 objects as of 23-Jan-2019
HD Live streaming from Space Station
objects crossing your sky now

FENGYUN 1C DEB

Track FENGYUN 1C DEB now!
10-day predictions


NORAD ID: 31665
Int'l Code: 1999-025CBX
Perigee: 834.5 km
Apogee: 1,125.7 km
Inclination: 98.5 °
Period: 104.5 minutes
Semi major axis: 7351 km
RCS: 0.0067 m2 (small)
Launch date: May 10, 1999
Source: People's Republic of China (PRC)
Launch site: Taiyaun Space Center, China (TSC)

Note: This is SATELLITE DEBRIS
aabbcc
Your satellite tracking list
Your tracking list is empty




NASA's NSSDC Master Catalog

Two Line Element Set (TLE):
1 31665U 99025CBX 19021.70151102 +.00000158 +00000-0 +16990-3 0  9998
2 31665 098.4846 296.7694 0198033 181.2287 208.9620 13.77446879586594
Source of the keplerian elements: AFSPC